Location: Aydie
(43.5695°N, 0.1043°W)
Time: 06:28:02
(UTC+00:00)

Cosmos 1190 Rocket - Pass Details

Date: 17 November 2025
Orbit: 752 x 776 km, 74.1° (Epoch: 04 December)

Event Time Altitude Azimuth Distance (km) Brightness Sun altitude
Rises 18:30:32 0° 208° (SSW) 3,238 7.7 -21.1°
Reaches altitude 10° 18:32:55 10° 211° (SSW) 2,316 7.0 -21.5°
Maximum altitude 18:38:08 63° 293° (WNW) 865 4.4 -22.5°
Enters shadow 18:42:24 16° 12° (NNE) 1,957 5.9 -23.2°
